Location: Guadanolo
(41.9167°N, 12.9333°E)
Time: 19:34:45
(UTC+00:00)

Cosmos 2056 Rocket - Pass Details

Date: 16 September 2019
Orbit: 742 x 800 km, 74.0° (Epoch: 20 October)

Event Time Altitude Azimuth Distance (km) Brightness Sun altitude
Rises 19:16:58 0° 192° (SSW) 3,288 6.6 -22.4°
Reaches altitude 10° 19:19:21 10° 190° (S) 2,365 5.9 -22.8°
Maximum altitude 19:24:43 72° 107° (ESE) 841 3.4 -23.7°
Drops below altitude 10° 19:30:08 10° 24° (NNE) 2,378 6.1 -24.5°
Sets 19:32:32 0° 22° (NNE) 3,307 6.9 -24.9°
